This is the latest recevied weather packets stored in our database for station/object KD8TSA. If no packets are shown the sender has not sent any weather packets the latest 10 day(s).
| Time | Temp. | Humidity | Pressure | Rain* | Wind** | Luminosity | Snow |
|---|---|---|---|---|---|---|---|
| 1778318963 | 11.67° C | 97% | 1008.5 hPa | 1.78 mm | - | 0 W/m² | - |
| 1778318660 | 11.67° C | 97% | 1008.5 hPa | 1.27 mm | - | 0 W/m² | - |
| 1778318359 | 11.67° C | 97% | 1008.7 hPa | 1.27 mm | - | 0 W/m² | - |
| 1778318055 | 11.67° C | 97% | 1008.7 hPa | 1.78 mm | - | 0 W/m² | - |
| 1778317752 | 11.67° C | 97% | 1008.5 hPa | 1.78 mm | - | 0 W/m² | - |
| 1778317449 | 11.67° C | 97% | 1008.7 hPa | 0 mm | - | 0 W/m² | - |
| 1778317147 | 11.67° C | 97% | 1008.6 hPa | 1.27 mm | - | 0 W/m² | - |
| 1778316844 | 11.67° C | 97% | 1008.6 hPa | 1.27 mm | - | 0 W/m² | - |
| 1778316540 | 11.67° C | 97% | 1008.6 hPa | 1.78 mm | - | 0 W/m² | - |
| 1778316237 | 11.67° C | 97% | 1008.4 hPa | 1.78 mm | - | 0 W/m² | - |
| 1778315935 | 11.67° C | 96% | 1008.6 hPa | 1.78 mm | - | 0 W/m² | - |
| 1778315631 | 11.67° C | 96% | 1008.4 hPa | 0 mm | - | 0 W/m² | - |
| 1778315328 | 11.67° C | 96% | 1008.5 hPa | 0 mm | - | 0 W/m² | - |
| 1778315025 | 11.67° C | 96% | 1008.6 hPa | 0 mm | - | 0 W/m² | - |
| 1778314722 | 11.67° C | 96% | 1008.7 hPa | 1.78 mm | - | 0 W/m² | - |
| 1778314419 | 11.67° C | 96% | 1008.9 hPa | 1.78 mm | - | 0 W/m² | - |
| 1778314117 | 11.67° C | 95% | 1008.8 hPa | 0 mm | - | 0 W/m² | - |
| 1778313815 | 11.67° C | 95% | 1009 hPa | 0 mm | - | 0 W/m² | - |
| 1778313513 | 11.67° C | 95% | 1008.9 hPa | 1.27 mm | - | 0 W/m² | - |
| 1778313210 | 11.67° C | 95% | 1008.8 hPa | 1.27 mm | - | 0 W/m² | - |
| 1778312907 | 11.67° C | 95% | 1008.9 hPa | 0 mm | - | 0 W/m² | - |
| 1778312605 | 11.67° C | 95% | 1009.1 hPa | 1.78 mm | - | 0 W/m² | - |
| 1778312300 | 11.67° C | 95% | 1009 hPa | 1.78 mm | - | 0 W/m² | - |
| 1778311997 | 11.67° C | 95% | 1009.2 hPa | 0 mm | - | 0 W/m² | - |
| 1778311694 | 11.67° C | 94% | 1009.1 hPa | 0 mm | - | 0 W/m² | - |
* Rain latest hour (hover to see other rain measurements)
** Current wind speed in m/s (hover to see current wind gust speed)